TimeHST,TemperatureF,Dew PointF,Humidity,Sea Level PressureIn,VisibilityMPH,Wind Direction,Wind SpeedMPH,Gust SpeedMPH,PrecipitationIn,Events,Conditions,WindDirDegrees,DateUTC
12:53 AM,66.0,63.0,90,30.06,10.0,North,5.8,-,N/A,,Scattered Clouds,360,2013-04-24 10:53:00
1:53 AM,64.9,63.0,93,30.06,10.0,WNW,4.6,-,N/A,,Mostly Cloudy,290,2013-04-24 11:53:00
2:53 AM,66.0,63.0,90,30.04,10.0,NNW,5.8,-,N/A,,Scattered Clouds,330,2013-04-24 12:53:00
3:53 AM,64.9,63.0,93,30.03,10.0,WNW,4.6,-,N/A,,Overcast,290,2013-04-24 13:53:00
4:53 AM,66.0,63.0,90,30.04,10.0,WNW,4.6,-,N/A,,Overcast,290,2013-04-24 14:53:00
5:53 AM,66.0,63.0,90,30.06,10.0,WNW,5.8,-,N/A,,Overcast,290,2013-04-24 15:53:00
6:53 AM,68.0,64.0,87,30.08,10.0,WNW,4.6,-,N/A,,Overcast,300,2013-04-24 16:53:00
7:53 AM,71.1,64.9,81,30.10,10.0,North,4.6,-,N/A,,Overcast,360,2013-04-24 17:53:00
8:53 AM,73.0,64.9,76,30.12,10.0,NNE,11.5,-,N/A,,Overcast,30,2013-04-24 18:53:00
9:53 AM,75.2,66.2,73,30.12,10.0,NE,11.5,-,N/A,,Overcast,40,2013-04-24 19:53:00
10:53 AM,75.2,64.4,69,30.12,10.0,NNE,10.4,-,N/A,,Overcast,30,2013-04-24 20:53:00
11:53 AM,77.0,64.9,66,30.10,10.0,North,10.4,-,N/A,,Partly Cloudy,10,2013-04-24 21:53:00
12:33 PM,77.0,66.2,69,30.10,10.0,NNE,10.4,-,N/A,,Mostly Cloudy,20,2013-04-24 22:33:00
12:53 PM,77.0,66.9,71,30.09,10.0,NE,11.5,-,N/A,,Mostly Cloudy,40,2013-04-24 22:53:00
1:53 PM,77.0,68.0,74,30.06,10.0,NE,11.5,-,N/A,,Partly Cloudy,40,2013-04-24 23:53:00
2:48 PM,-9999,-9999,N/A,30.05,10.0,NE,10.4,-,N/A,,Mostly Cloudy,40,2013-04-25 00:48:00
2:53 PM,-9999,-9999,N/A,30.05,10.0,NE,10.4,-,N/A,,Mostly Cloudy,40,2013-04-25 00:53:00
3:29 PM,77.0,69.8,78,30.05,10.0,NE,11.5,-,N/A,,Mostly Cloudy,40,2013-04-25 01:29:00
3:53 PM,77.0,69.8,78,30.05,10.0,NE,10.4,-,N/A,,Scattered Clouds,40,2013-04-25 01:53:00
4:51 PM,75.2,68.0,78,30.04,10.0,NE,11.5,-,N/A,,Mostly Cloudy,40,2013-04-25 02:51:00
4:53 PM,75.2,68.0,78,30.04,10.0,NE,10.4,-,N/A,,Mostly Cloudy,40,2013-04-25 02:53:00
5:53 PM,75.2,66.9,75,30.06,10.0,NE,11.5,-,N/A,,Overcast,40,2013-04-25 03:53:00
6:53 PM,72.0,66.9,84,30.07,10.0,NE,11.5,-,N/A,,Overcast,40,2013-04-25 04:53:00
7:53 PM,72.0,66.9,84,30.09,10.0,NE,11.5,-,N/A,,Overcast,40,2013-04-25 05:53:00
8:21 PM,71.6,66.2,83,30.11,10.0,NNE,10.4,-,N/A,,Overcast,30,2013-04-25 06:21:00
8:31 PM,71.6,66.2,83,30.11,10.0,NNE,11.5,-,N/A,,Overcast,30,2013-04-25 06:31:00
8:53 PM,72.0,66.9,84,30.11,10.0,NNE,11.5,-,N/A,,Overcast,30,2013-04-25 06:53:00
9:53 PM,72.0,66.9,84,30.12,10.0,NE,9.2,-,N/A,,Overcast,40,2013-04-25 07:53:00
10:53 PM,72.0,66.9,84,30.11,10.0,NNE,9.2,-,N/A,,Overcast,20,2013-04-25 08:53:00
11:53 PM,72.0,68.0,87,30.10,10.0,NNE,10.4,-,N/A,,Overcast,30,2013-04-25 09:53:00